FW3274 Weather Reports


Display with metric or nautical units.
time (UTC)temp
F
wind
direction
speed
MPH
gust
MPH
rain 1hr
in
rain 24hr
in
rain mn
in
humidity
%
barometer
mb
20260509174601 71 102 0.0 0.0 0.00 0.00 0.00 55 1011.4
20260509173108 72 196 0.0 0.0 0.00 0.00 0.00 54 1011.3
20260509171601 73 144 0.0 0.0 0.00 0.00 0.00 53 1011.1
20260509164559 75 213 0.0 0.0 0.00 0.00 0.00 51 1010.8
20260509163101 75 229 0.0 1.0 0.00 0.00 0.00 53 1010.8
20260509161604 76 190 0.0 1.0 0.00 0.00 0.00 52 1010.9
20260509160058 76 186 0.0 6.0 0.00 0.00 0.00 52 1011.0
20260509154555 76 229 1.0 6.0 0.00 0.00 0.00 52 1011.1
20260509153102 77 202 1.0 5.0 0.00 0.00 0.00 50 1011.1
20260509151554 78 211 0.0 0.0 0.00 0.00 0.00 49 1011.1
20260509150052 78 223 0.0 0.0 0.00 0.00 0.00 49 1011.2
20260509144552 77 217 0.0 4.0 0.00 0.00 0.00 46 1011.3
20260509143050 79 209 0.0 5.0 0.00 0.00 0.00 36 1011.4
20260509141548 78 189 0.0 8.0 0.00 0.00 0.00 38 1011.5
20260509134545 78 244 0.0 6.0 0.00 0.00 0.00 36 1011.8
20260509133045 78 205 0.0 9.0 0.00 0.00 0.00 39 1011.9
20260509131544 78 277 0.0 4.0 0.00 0.00 0.00 38 1011.9
20260509130041 78 284 0.0 0.0 0.00 0.00 0.00 42 1011.9
20260509124544 77 230 0.0 5.0 0.00 0.00 0.00 41 1012.0
20260509123040 77 108 0.0 1.0 0.00 0.00 0.00 41 1012.0
20260509121538 77 227 0.0 7.0 0.00 0.00 0.00 44 1012.1
20260509120038 76 258 0.0 1.0 0.00 0.00 0.00 39 1012.4
20260509114536 77 188 0.0 0.0 0.00 0.00 0.00 45 1012.5
20260509113032 75 151 0.0 4.0 0.00 0.00 0.00 45 1012.6
20260509111530 76 201 0.0 0.0 0.00 0.00 0.00 47 1012.7
20260509110028 74 215 0.0 3.0 0.00 0.00 0.00 49 1013.0
20260509104526 74 215 0.0 4.0 0.00 0.00 0.00 49 1013.1
20260509103024 74 265 0.0 3.0 0.00 0.00 0.00 54 1013.4
20260509101524 73 263 1.0 7.0 0.00 0.00 0.00 53 1013.5
20260509100027 73 224 0.0 4.0 0.00 0.00 0.00 50 1013.5
20260509094521 73 232 0.0 3.0 0.00 0.00 0.00 52 1013.6
20260509093022 72 221 0.0 6.0 0.00 0.00 0.00 54 1013.7
20260509091519 72 165 0.0 0.0 0.00 0.00 0.00 56 1013.8
20260509090033 71 225 0.0 3.0 0.00 0.00 0.00 54 1013.9
20260509084518 71 215 0.0 0.0 0.00 0.00 0.00 55 1013.8
20260509083017 71 143 0.0 0.0 0.00 0.00 0.00 55 1013.9
20260509081516 71 143 0.0 0.0 0.00 0.00 0.00 56 1013.9
20260509080017 69 35 0.0 0.0 0.00 0.00 0.00 55 1014.1
20260509074514 70 355 0.0 0.0 0.00 0.00 0.00 57 1014.1
20260509073028 69 64 0.0 0.0 0.00 0.00 0.00 55 1014.1
20260509071511 70 80 0.0 0.0 0.00 0.00 0.00 56 1013.9
20260509070010 69 86 0.0 0.0 0.00 0.00 0.00 59 1014.0
20260509064505 68 86 0.0 0.0 0.00 0.00 0.00 59 1013.9
20260509063003 67 308 0.0 0.0 0.00 0.00 0.00 61 1013.8
20260509061559 65 307 0.0 0.0 0.00 0.00 0.00 63 1013.9
20260509060110 62 307 0.0 0.0 0.00 0.00 0.00 67 1013.9
20260509054553 61 307 0.0 0.0 0.00 0.00 0.00 71 1014.0
20260509053100 60 336 0.0 0.0 0.00 0.00 0.00 73 1013.9
20260509051548 59 30 0.0 0.0 0.00 0.00 0.00 74 1013.9
20260509050044 58 30 0.0 0.0 0.00 0.00 0.00 76 1013.8
20260509044542 56 31 0.0 0.0 0.00 0.00 0.00 79 1013.6
20260509043050 55 104 0.0 0.0 0.00 0.00 0.00 81 1013.6
20260509041541 54 104 0.0 0.0 0.00 0.00 0.00 82 1013.5
20260509040057 54 108 0.0 0.0 0.00 0.00 0.00 82 1013.5
20260509034539 54 110 0.0 0.0 0.00 0.00 0.00 82 1013.6
20260509033058 54 110 0.0 0.0 0.00 0.00 0.00 82 1013.6
20260509031537 54 110 0.0 0.0 0.00 0.00 0.00 82 1013.5
20260509030036 54 110 0.0 0.0 0.00 0.00 0.00 83 1013.5
20260509024536 54 110 0.0 0.0 0.00 0.00 0.00 83 1013.5
20260509023035 54 111 0.0 0.0 0.00 0.00 0.00 84 1013.6
20260509021534 55 111 0.0 0.0 0.00 0.00 0.00 84 1013.6
20260509020031 55 111 0.0 0.0 0.00 0.00 0.00 83 1013.5
20260509014531 55 111 0.0 0.0 0.00 0.00 0.00 82 1013.4
20260509013031 56 226 0.0 0.0 0.00 0.00 0.00 80 1013.3
20260509011528 56 226 0.0 0.0 0.00 0.00 0.00 80 1013.2
20260509010033 56 226 0.0 0.0 0.00 0.00 0.00 80 1013.2
20260509004526 56 223 0.0 0.0 0.00 0.00 0.00 80 1013.2
20260509003026 56 223 0.0 0.0 0.00 0.00 0.00 80 1013.2
20260509001524 56 223 0.0 0.0 0.00 0.00 0.00 81 1013.3
20260509000022 57 223 0.0 0.0 0.00 0.00 0.00 81 1013.3
20260508234519 57 223 0.0 0.0 0.00 0.00 0.00 80 1013.3
20260508233018 58 223 0.0 0.0 0.00 0.00 0.00 80 1013.4
20260508231517 58 223 0.0 0.0 0.00 0.00 0.00 79 1013.4
20260508230017 58 223 0.0 0.0 0.00 0.00 0.00 79 1013.4
20260508224521 58 223 0.0 0.0 0.00 0.00 0.00 77 1013.5
20260508223014 59 223 0.0 0.0 0.00 0.00 0.00 77 1013.4
20260508221512 59 223 0.0 0.0 0.00 0.00 0.00 77 1013.4
20260508220010 60 223 0.0 0.0 0.00 0.00 0.00 76 1013.4
20260508214522 60 223 0.0 0.0 0.00 0.00 0.00 75 1013.4
20260508213010 60 223 0.0 0.0 0.00 0.00 0.00 75 1013.2
20260508211515 61 223 0.0 0.0 0.00 0.00 0.00 74 1013.2
20260508210016 61 223 0.0 0.0 0.00 0.00 0.00 73 1013.2
20260508204508 62 223 0.0 0.0 0.00 0.00 0.00 72 1013.1
20260508203008 62 223 0.0 0.0 0.00 0.00 0.00 71 1013.0
20260508201508 63 223 0.0 0.0 0.00 0.00 0.00 70 1012.9
20260508200011 63 223 0.0 0.0 0.00 0.00 0.00 68 1012.8
20260508194508 64 223 0.0 0.0 0.00 0.00 0.00 68 1012.7
20260508193007 64 223 0.0 0.0 0.00 0.00 0.00 66 1012.6
20260508191506 65 223 0.0 0.0 0.00 0.00 0.00 64 1012.4
20260508190005 65 223 0.0 0.0 0.00 0.00 0.00 64 1012.2
20260508184505 66 223 0.0 0.0 0.00 0.00 0.00 62 1012.0
20260508183004 67 223 0.0 0.0 0.00 0.00 0.00 61 1011.7
20260508181503 67 223 0.0 0.0 0.00 0.00 0.00 60 1011.7
20260508180003 68 225 0.0 0.0 0.00 0.00 0.00 59 1011.5